Time,TemperatureF,DewpointF,PressureIn,WindDirection,WindDirectionDegrees,WindSpeedMPH,WindSpeedGustMPH,Humidity,HourlyPrecipIn,Conditions,Clouds,dailyrainin,SoftwareType,DateUTC
2014-08-20 00:07:00,78.1,72.9,29.93,WNW,284,1.0,1.0,84,0.00,,,0.00,Wunderground v.1.12,2014-08-20 05:07:00,
2014-08-20 00:12:00,77.8,72.9,29.93,WNW,291,1.0,1.0,85,0.00,,,0.00,Wunderground v.1.12,2014-08-20 05:12:00,
2014-08-20 00:18:00,78.0,72.8,29.92,WNW,293,1.0,5.0,84,0.00,,,0.00,Wunderground v.1.12,2014-08-20 05:18:00,
2014-08-20 00:27:00,76.8,71.9,29.92,NNW,329,0.0,0.0,85,0.00,,,0.00,Wunderground v.1.12,2014-08-20 05:27:00,
2014-08-20 00:32:00,76.7,71.8,29.92,N/A,-737280,0.0,0.0,85,0.00,,,0.00,Wunderground v.1.12,2014-08-20 05:32:00,
2014-08-20 00:37:00,-999.9,-99.9,29.92,NNW,329,0.0,0.0,86,0.00,,,0.00,Wunderground v.1.12,2014-08-20 05:37:00,
2014-08-20 00:47:00,76.4,71.9,29.91,SSE,147,0.0,0.0,86,0.00,,,0.00,Wunderground v.1.12,2014-08-20 05:47:00,
2014-08-20 00:50:00,76.4,71.9,29.92,N/A,-737280,0.0,0.0,86,0.00,,,0.00,Wunderground v.1.12,2014-08-20 05:50:00,
2014-08-20 00:52:00,76.4,71.9,29.91,SSE,147,0.0,0.0,86,0.00,,,0.00,Wunderground v.1.12,2014-08-20 05:52:00,
2014-08-20 00:58:00,76.3,71.8,29.91,SSE,147,0.0,0.0,86,0.00,,,0.00,Wunderground v.1.12,2014-08-20 05:58:00,
2014-08-20 01:07:00,76.4,71.9,29.91,NE,54,0.0,0.0,86,0.00,,,0.00,Wunderground v.1.12,2014-08-20 06:07:00,
2014-08-20 01:17:00,76.4,71.9,29.91,N/A,-737280,0.0,0.0,86,0.00,,,0.00,Wunderground v.1.12,2014-08-20 06:17:00,
2014-08-20 01:22:00,76.3,71.8,29.92,NE,54,0.0,0.0,86,0.00,,,0.00,Wunderground v.1.12,2014-08-20 06:22:00,
2014-08-20 01:27:00,76.2,71.7,29.92,NE,54,0.0,0.0,86,0.00,,,0.00,Wunderground v.1.12,2014-08-20 06:27:00,
2014-08-20 01:32:00,76.2,71.7,29.92,N/A,-737280,0.0,0.0,86,0.00,,,0.00,Wunderground v.1.12,2014-08-20 06:32:00,
2014-08-20 01:42:00,75.9,71.4,29.92,NE,54,0.0,0.0,86,0.00,,,0.00,Wunderground v.1.12,2014-08-20 06:42:00,
2014-08-20 01:47:00,75.9,71.4,29.92,N/A,-737280,0.0,0.0,86,0.00,,,0.00,Wunderground v.1.12,2014-08-20 06:47:00,
2014-08-20 01:58:00,75.8,71.7,29.92,NE,54,0.0,0.0,87,0.00,,,0.00,Wunderground v.1.12,2014-08-20 06:58:00,
2014-08-20 02:07:00,75.8,71.7,29.92,NE,54,0.0,0.0,87,0.00,,,0.00,Wunderground v.1.12,2014-08-20 07:07:00,
2014-08-20 02:12:00,75.8,71.7,29.92,NE,54,0.0,0.0,87,0.00,,,0.00,Wunderground v.1.12,2014-08-20 07:12:00,
2014-08-20 02:17:00,75.8,71.7,29.92,N/A,-737280,0.0,0.0,87,0.00,,,0.00,Wunderground v.1.12,2014-08-20 07:17:00,
2014-08-20 02:27:00,75.9,71.8,29.92,NE,54,0.0,0.0,87,0.00,,,0.00,Wunderground v.1.12,2014-08-20 07:27:00,
2014-08-20 02:32:00,75.9,71.8,29.92,N/A,-737280,0.0,0.0,87,0.00,,,0.00,Wunderground v.1.12,2014-08-20 07:32:00,
2014-08-20 02:42:00,75.8,71.7,29.92,NE,54,0.0,0.0,87,0.00,,,0.00,Wunderground v.1.12,2014-08-20 07:42:00,
2014-08-20 02:47:00,75.8,71.7,29.93,N/A,-737280,0.0,0.0,87,0.00,,,0.00,Wunderground v.1.12,2014-08-20 07:47:00,
2014-08-20 02:58:00,75.7,71.6,29.93,NE,54,0.0,0.0,87,0.00,,,0.00,Wunderground v.1.12,2014-08-20 07:58:00,
2014-08-20 03:03:00,75.6,71.5,29.93,N/A,-737280,0.0,0.0,87,0.00,,,0.00,Wunderground v.1.12,2014-08-20 08:03:00,
2014-08-20 03:12:00,75.5,71.4,29.93,NE,54,0.0,0.0,87,0.00,,,0.00,Wunderground v.1.12,2014-08-20 08:12:00,
2014-08-20 03:17:00,75.5,71.4,29.94,N/A,-737280,0.0,0.0,87,0.00,,,0.00,Wunderground v.1.12,2014-08-20 08:17:00,
2014-08-20 03:22:00,75.6,71.8,29.94,NE,54,0.0,0.0,88,0.00,,,0.00,Wunderground v.1.12,2014-08-20 08:22:00,
2014-08-20 03:28:00,75.6,71.8,29.94,NE,54,0.0,0.0,88,0.00,,,0.00,Wunderground v.1.12,2014-08-20 08:28:00,
2014-08-20 03:37:00,75.8,72.0,29.94,NE,54,0.0,0.0,88,0.00,,,0.00,Wunderground v.1.12,2014-08-20 08:37:00,
2014-08-20 03:42:00,75.8,72.0,29.94,NE,54,0.0,0.0,88,0.00,,,0.00,Wunderground v.1.12,2014-08-20 08:42:00,
2014-08-20 03:52:00,75.7,71.9,29.94,NE,54,0.0,0.0,88,0.00,,,0.00,Wunderground v.1.12,2014-08-20 08:52:00,
2014-08-20 03:58:00,75.7,71.9,29.94,NE,54,0.0,0.0,88,0.00,,,0.00,Wunderground v.1.12,2014-08-20 08:58:00,
2014-08-20 04:07:00,75.7,71.9,29.94,NE,54,0.0,0.0,88,0.00,,,0.00,Wunderground v.1.12,2014-08-20 09:07:00,
2014-08-20 04:12:00,75.7,71.9,29.94,NE,54,0.0,0.0,88,0.00,,,0.00,Wunderground v.1.12,2014-08-20 09:12:00,
2014-08-20 04:22:00,75.7,72.2,29.94,NE,54,0.0,0.0,89,0.00,,,0.00,Wunderground v.1.12,2014-08-20 09:22:00,
2014-08-20 04:27:00,75.7,72.2,29.94,NE,54,0.0,0.0,89,0.00,,,0.00,Wunderground v.1.12,2014-08-20 09:27:00,
2014-08-20 04:37:00,75.7,72.2,29.94,NE,54,0.0,0.0,89,0.00,,,0.00,Wunderground v.1.12,2014-08-20 09:37:00,
2014-08-20 04:42:00,75.7,72.2,29.94,NE,54,0.0,0.0,89,0.00,,,0.00,Wunderground v.1.12,2014-08-20 09:42:00,
2014-08-20 04:47:00,75.7,72.2,29.94,N/A,-737280,0.0,0.0,89,0.00,,,0.00,Wunderground v.1.12,2014-08-20 09:47:00,
2014-08-20 04:53:00,75.9,72.4,29.94,NE,54,0.0,0.0,89,0.00,,,0.00,Wunderground v.1.12,2014-08-20 09:53:00,
2014-08-20 05:02:00,75.9,72.4,29.94,N/A,-737280,0.0,0.0,89,0.00,,,0.00,Wunderground v.1.12,2014-08-20 10:02:00,
2014-08-20 05:08:00,76.0,72.9,29.95,NE,54,0.0,0.0,90,0.00,,,0.00,Wunderground v.1.12,2014-08-20 10:08:00,
2014-08-20 05:17:00,76.0,72.9,29.95,N/A,-737280,0.0,0.0,90,0.00,,,0.00,Wunderground v.1.12,2014-08-20 10:17:00,
2014-08-20 05:22:00,75.8,72.7,29.95,NE,54,0.0,0.0,90,0.00,,,0.00,Wunderground v.1.12,2014-08-20 10:22:00,
2014-08-20 05:27:00,75.8,72.7,29.95,NE,54,0.0,0.0,90,0.00,,,0.00,Wunderground v.1.12,2014-08-20 10:27:00,
2014-08-20 05:32:00,75.8,72.7,29.96,N/A,-737280,0.0,0.0,90,0.00,,,0.00,Wunderground v.1.12,2014-08-20 10:32:00,
2014-08-20 05:42:00,75.7,72.6,29.96,NE,54,0.0,0.0,90,0.00,,,0.00,Wunderground v.1.12,2014-08-20 10:42:00,
2014-08-20 05:47:00,75.7,72.6,29.97,N/A,-737280,0.0,0.0,90,0.00,,,0.00,Wunderground v.1.12,2014-08-20 10:47:00,
2014-08-20 05:53:00,75.6,72.5,29.97,NE,54,0.0,0.0,90,0.00,,,0.00,Wunderground v.1.12,2014-08-20 10:53:00,
2014-08-20 05:58:00,75.5,72.0,29.97,NE,54,0.0,0.0,89,0.00,,,0.00,Wunderground v.1.12,2014-08-20 10:58:00,
2014-08-20 06:07:00,75.6,72.5,29.97,NE,54,0.0,0.0,90,0.00,,,0.00,Wunderground v.1.12,2014-08-20 11:07:00,
2014-08-20 06:12:00,75.7,72.6,29.97,NE,54,0.0,0.0,90,0.00,,,0.00,Wunderground v.1.12,2014-08-20 11:12:00,
2014-08-20 06:17:00,75.7,72.6,29.97,N/A,-737280,0.0,0.0,90,0.00,,,0.00,Wunderground v.1.12,2014-08-20 11:17:00,
2014-08-20 06:27:00,75.9,72.4,29.98,NE,54,0.0,0.0,89,0.00,,,0.00,Wunderground v.1.12,2014-08-20 11:27:00,
2014-08-20 06:32:00,75.9,72.4,29.98,N/A,-737280,0.0,0.0,89,0.00,,,0.00,Wunderground v.1.12,2014-08-20 11:32:00,
2014-08-20 06:42:00,76.0,72.5,29.98,NE,54,0.0,0.0,89,0.00,,,0.00,Wunderground v.1.12,2014-08-20 11:42:00,
2014-08-20 06:47:00,76.0,72.5,29.99,N/A,-737280,0.0,0.0,89,0.00,,,0.00,Wunderground v.1.12,2014-08-20 11:47:00,
2014-08-20 06:58:00,76.3,73.1,29.99,NE,54,0.0,0.0,90,0.00,,,0.00,Wunderground v.1.12,2014-08-20 11:58:00,
2014-08-20 07:07:00,76.8,73.6,30.00,NE,54,0.0,0.0,90,0.00,,,0.00,Wunderground v.1.12,2014-08-20 12:07:00,
2014-08-20 07:12:00,77.1,73.9,30.00,NE,54,0.0,0.0,90,0.00,,,0.00,Wunderground v.1.12,2014-08-20 12:12:00,
2014-08-20 07:17:00,76.9,73.7,30.00,N/A,-737280,0.0,0.0,90,0.00,,,0.00,Wunderground v.1.12,2014-08-20 12:17:00,
2014-08-20 07:27:00,78.5,75.3,30.00,NNW,329,0.0,0.0,90,0.00,,,0.00,Wunderground v.1.12,2014-08-20 12:27:00,
2014-08-20 07:32:00,78.6,75.4,30.01,N/A,-737280,0.0,0.0,90,0.00,,,0.00,Wunderground v.1.12,2014-08-20 12:32:00,
2014-08-20 07:38:00,79.0,75.5,30.01,NNE,19,1.0,1.0,89,0.00,,,0.00,Wunderground v.1.12,2014-08-20 12:38:00,
2014-08-20 07:47:00,79.0,75.1,30.01,NNE,23,1.0,5.0,88,0.00,,,0.00,Wunderground v.1.12,2014-08-20 12:47:00,
2014-08-20 07:52:00,79.1,74.9,30.02,NNE,15,1.0,1.0,87,0.00,,,0.00,Wunderground v.1.12,2014-08-20 12:52:00,
2014-08-20 07:58:00,79.3,74.7,30.02,North,355,0.0,0.0,86,0.00,,,0.00,Wunderground v.1.12,2014-08-20 12:58:00,
2014-08-20 08:07:00,79.8,74.9,30.02,NNW,348,0.0,0.0,85,0.00,,,0.00,Wunderground v.1.12,2014-08-20 13:07:00,
2014-08-20 08:12:00,80.1,75.2,30.02,North,5,0.0,0.0,85,0.00,,,0.00,Wunderground v.1.12,2014-08-20 13:12:00,
2014-08-20 08:15:00,80.3,75.4,30.02,N/A,-737280,0.0,0.0,85,0.00,,,0.00,Wunderground v.1.12,2014-08-20 13:15:00,
2014-08-20 08:20:00,80.6,75.3,30.02,N/A,-737280,0.0,0.0,84,0.00,,,0.00,Wunderground v.1.12,2014-08-20 13:20:00,
2014-08-20 08:32:00,80.9,75.6,30.02,N/A,-737280,0.0,0.0,84,0.00,,,0.00,Wunderground v.1.12,2014-08-20 13:32:00,
2014-08-20 08:35:00,81.9,76.2,30.03,WNW,293,1.0,4.0,83,0.00,,,0.00,Wunderground v.1.12,2014-08-20 13:35:00,
2014-08-20 08:37:00,82.1,76.1,30.03,West,265,1.0,1.0,82,0.00,,,0.00,Wunderground v.1.12,2014-08-20 13:37:00,
2014-08-20 08:42:00,82.6,76.2,30.03,SSW,194,1.0,1.0,81,0.00,,,0.00,Wunderground v.1.12,2014-08-20 13:42:00,
2014-08-20 08:47:00,82.9,76.1,30.03,SW,217,1.0,5.0,80,0.00,,,0.00,Wunderground v.1.12,2014-08-20 13:47:00,
2014-08-20 08:53:00,83.0,75.8,30.03,SW,225,2.0,2.0,79,0.00,,,0.00,Wunderground v.1.12,2014-08-20 13:53:00,
2014-08-20 08:58:00,83.1,75.9,30.03,SW,228,1.0,1.0,79,0.00,,,0.00,Wunderground v.1.12,2014-08-20 13:58:00,
2014-08-20 09:07:00,83.6,76.8,30.04,SSW,210,1.0,1.0,80,0.00,,,0.00,Wunderground v.1.12,2014-08-20 14:07:00,
2014-08-20 09:12:00,83.9,76.7,30.04,WSW,245,1.0,1.0,79,0.00,,,0.00,Wunderground v.1.12,2014-08-20 14:12:00,
2014-08-20 09:22:00,84.5,76.9,30.04,SSW,210,1.0,2.0,78,0.00,,,0.00,Wunderground v.1.12,2014-08-20 14:22:00,
2014-08-20 09:27:00,84.5,76.5,30.04,West,265,1.0,1.0,77,0.00,,,0.00,Wunderground v.1.12,2014-08-20 14:27:00,
2014-08-20 09:37:00,85.0,77.4,30.04,SW,236,1.0,1.0,78,0.00,,,0.00,Wunderground v.1.12,2014-08-20 14:37:00,
2014-08-20 09:42:00,85.2,77.2,30.04,WSW,258,1.0,1.0,77,0.00,,,0.00,Wunderground v.1.12,2014-08-20 14:42:00,
2014-08-20 09:47:00,85.1,77.5,30.04,West,270,1.0,4.0,78,0.00,,,0.00,Wunderground v.1.12,2014-08-20 14:47:00,
2014-08-20 09:58:00,85.8,77.8,30.04,SW,215,1.0,1.0,77,0.00,,,0.00,Wunderground v.1.12,2014-08-20 14:58:00,
2014-08-20 10:07:00,85.9,77.8,30.05,WSW,248,0.0,3.0,77,0.00,,,0.00,Wunderground v.1.12,2014-08-20 15:07:00,
2014-08-20 10:12:00,86.4,77.5,30.05,SSW,213,1.0,1.0,75,0.00,,,0.00,Wunderground v.1.12,2014-08-20 15:12:00,
2014-08-20 10:17:00,86.6,77.7,30.05,SW,214,1.0,6.0,75,0.00,,,0.00,Wunderground v.1.12,2014-08-20 15:17:00,
2014-08-20 10:20:00,86.6,77.7,30.05,SW,225,2.0,6.0,75,0.00,,,0.00,Wunderground v.1.12,2014-08-20 15:20:00,
2014-08-20 10:23:00,86.7,77.8,30.05,SW,223,2.0,3.0,75,0.00,,,0.00,Wunderground v.1.12,2014-08-20 15:23:00,
2014-08-20 10:32:00,86.5,78.0,30.05,West,263,2.0,2.0,76,0.00,,,0.00,Wunderground v.1.12,2014-08-20 15:32:00,
2014-08-20 10:37:00,86.6,78.1,30.05,SW,217,2.0,5.0,76,0.00,,,0.00,Wunderground v.1.12,2014-08-20 15:37:00,
2014-08-20 10:43:00,86.3,77.8,30.05,SW,228,3.0,3.0,76,0.00,,,0.00,Wunderground v.1.12,2014-08-20 15:43:00,
2014-08-20 10:52:00,86.1,78.0,30.05,West,259,3.0,5.0,77,0.00,,,0.00,Wunderground v.1.12,2014-08-20 15:52:00,
2014-08-20 10:58:00,85.9,78.2,30.05,SW,225,3.0,4.0,78,0.00,,,0.00,Wunderground v.1.12,2014-08-20 15:58:00,
2014-08-20 11:07:00,86.1,78.4,30.05,West,261,2.0,2.0,78,0.00,,,0.00,Wunderground v.1.12,2014-08-20 16:07:00,
2014-08-20 11:12:00,86.6,78.9,30.05,SSW,211,1.0,1.0,78,0.00,,,0.00,Wunderground v.1.12,2014-08-20 16:12:00,
2014-08-20 11:17:00,86.7,79.0,30.05,SW,225,1.0,6.0,78,0.00,,,0.00,Wunderground v.1.12,2014-08-20 16:17:00,
2014-08-20 11:22:00,86.6,78.5,30.05,SW,231,3.0,3.0,77,0.00,,,0.00,Wunderground v.1.12,2014-08-20 16:22:00,
2014-08-20 11:27:00,86.6,78.9,30.05,WSW,247,3.0,3.0,78,0.00,,,0.00,Wunderground v.1.12,2014-08-20 16:27:00,
2014-08-20 11:37:00,87.0,78.9,30.05,SW,220,2.0,5.0,77,0.00,,,0.00,Wunderground v.1.12,2014-08-20 16:37:00,